Regional Weather Roundup
Issued by NWS

Home | Current Version | Previous Version | Graphics & Text | Print | Product List | Glossary Off
Versions: 1 2 3 4 5 6 7 8 9 10 11 12 13 14 15 16 17 18 19 20 21 22 23 24 25 26 27 28 29 30 31 32 33 34 35 36 37 38 39 40 41 42 43 44 45 46 47 48 49 50

000
ASUS43 KMPX 201510
RWRMN
WEATHER ROUNDUP FOR MINNESOTA
NATIONAL WEATHER SERVICE TWIN CITIES/CHANHASSEN MN
1000 AM CDT MON OCT 20 2014


NOTE: "FAIR" INDICATES FEW OR NO CLOUDS BELOW 12,000 FEET WITH NO
SIGNIFICANT WEATHER AND/OR OBSTRUCTIONS TO VISIBILITY. N/A MEANS
CURRENT SKY AND/OR WEATHER CONDITIONS ARE NOT AVAILABLE.

MNZ060>063-068>070-201600-
   Twin Cities Metro

CITY           SKY/WX    TMP DP  RH WIND       PRES   REMARKS
TWIN CITIES    SUNNY     54  43  66 NW8       30.00R
ST PAUL        SUNNY     53  43  68 NW9       30.01R
CRYSTAL        SUNNY     55  42  61 NW6       30.00R
BLAINE         SUNNY     52  45  76 NW8       30.00
LAKEVILLE      SUNNY     52  45  76 NW6       30.00R
EDEN PRAIRIE   SUNNY     54  44  69 NW8       30.00R
SOUTH ST PAUL  SUNNY     55  42  62 N8        29.99S
LAKE ELMO      FAIR      52  45  76 NW7       30.00R
$$
MNZ001>005-007-008-013>017-022>024-027-028-201600-
   Northwest Minnesota

CITY           SKY/WX    TMP DP  RH WIND       PRES   REMARKS
BEMIDJI        SUNNY     44  40  89 NW6       30.03R
HALLOCK        FOG       36  36 100 CALM      30.08R VSB<1/4
ROSEAU         CLOUDY    43  39  87 N6        30.06R
WARROAD        CLOUDY    43  39  87 NW5       30.06R
THIEF RVR FALL MOSUNNY   39  37  93 N6        30.07R
CROOKSTON      SUNNY     43  39  87 N3        30.08R
FOSSTON        SUNNY     43  39  87 CALM      30.06R
DETROIT LAKES  SUNNY     45  41  87 NW5       30.06R
MOORHEAD       SUNNY     45  43  93 N5        30.08R
PARK RAPIDS    SUNNY     47  40  76 N10       30.03R
MAHNOMEN       FAIR      42  38  87 N3        30.05R
$$
MNZ006-009>011-018-025>026-201600-
   North Central Minnesota

CITY           SKY/WX    TMP DP  RH WIND       PRES   REMARKS
BAUDETTE       CLOUDY    46  41  82 NW9       30.03R
FLAG ISLAND    CLOUDY    45  37  76 N12       30.04R
INTL FALLS     CLOUDY    45  35  68 N9        30.01R
WASKISH        CLOUDY    41  39  93 CALM      30.03R FOG
BIG FORK       CLOUDY    45  41  87 NW5       30.01R
LONGVILLE      PTSUNNY   46  43  87 N6        30.01R
GRAND RAPIDS   CLOUDY    45  39  81 N9        30.00R
CRANE LAKE     CLOUDY    43  41  93 N6        30.00R
ORR            CLOUDY    45  37  76 NW6       29.97R
COOK           CLOUDY    45  41  87 NW7       29.98R
WALKER         FAIR      45  40  83 NW3       30.02R
$$
MNZ012-019>021-037-201600-
   Northeast Minnesota

CITY           SKY/WX    TMP DP  RH WIND       PRES   REMARKS
DULUTH         CLOUDY    46  41  82 NW6       29.96R
ELY            CLOUDY    46  37  71 NW9       29.95S
HIBBING        CLOUDY    46  40  79 N12       29.98R
EVELETH        CLOUDY    43  41  93 NW7       29.98R FOG
DULUTH HARBOR  CLOUDY    50  43  76 NW8       29.98R
TWO HARBORS    CLOUDY    48  34  57 CALM      29.94R
SILVER BAY     SUNNY     52  41  66 NW5       29.92S
GRAND MARAIS     N/A     52  41  66 VRB3      29.91R
G MARAIS ARPRT CLOUDY    45  37  76 NW8G17    29.90S
$$
MNZ029>031-032-039>041-046>048-054>057-064-201600-
   West Central Minnesota

CITY           SKY/WX    TMP DP  RH WIND       PRES   REMARKS
FERGUS FALLS   SUNNY     43  36  75 NW5       30.07S
WHEATON        SUNNY     48  39  71 NW6       30.09S
MORRIS         SUNNY     48  41  76 NW10      30.06R
ALEXANDRIA     SUNNY     51  42  71 N7        30.05R
ELBOW LAKE     FAIR      43  38  82 NW6       30.05F
WADENA         SUNNY     46  43  87 NW8       30.04R
GLENWOOD       SUNNY     52  43  71 NW8       30.05R
APPLETON       SUNNY     52  43  71 NW7       30.07R
BENSON         SUNNY     46  41  81 N6        30.06R
ORTONVILLE     SUNNY     52  39  62 N7        30.07S
MADISON        SUNNY     54  43  66 NW8       30.07S
WILLMAR        FAIR      48  39  71 NW6       30.06R
$$
MNZ033>034-036-042>043-049>051-058-059-201600-
   Central Minnesota

CITY           SKY/WX    TMP DP  RH WIND       PRES   REMARKS
ST CLOUD       SUNNY     55  43  63 N7        30.02R
SAUK CENTRE    FAIR      49  41  74 NW6       30.04S
PAYNESVILLE    SUNNY     49  41  74 W6        30.04S
AITKIN         CLOUDY    50  43  76 N7        29.99R
PINE RIVER     SUNNY     46  41  81 NW7       30.05R
BRAINERD       SUNNY     48  41  76 NW12      30.02R
STAPLES        SUNNY     48  41  76 NW8       30.03R
LONG PRAIRIE   FAIR      48  41  76 NW5       30.04R
LITTLE FALLS   SUNNY     50  41  71 NW6       30.02R
LITCHFIELD     SUNNY     54  45  71 NW7       30.03S
BUFFALO        SUNNY     52  42  68 N6        30.02S
MAPLE LAKE     SUNNY     54  46  74 NW6       30.03R
$$
MNZ037-044-045-052-053-201600-
   East Central Minnesota

CITY           SKY/WX    TMP DP  RH WIND       PRES   REMARKS
PRINCETON      SUNNY     54  45  71 NW8       30.01R
MORA           SUNNY     50  43  76 N8        30.01R
CAMBRIDGE      SUNNY     54  43  66 NW7       29.98R
RUSH CITY      MOSUNNY   51  43  73 N8        29.99R
MOOSE LAKE     CLOUDY    46  41  81 NW9       29.98R
HINCKLEY       FAIR      50  43  76 NW9       29.99R
CLOQUET        CLOUDY    46  43  87 W7        29.97R
MCGREGOR       CLOUDY    45  43  93 NW7       30.00R
$$
MNZ071>073-080-081-089-090-097-098-201600-
   Southwest Minnesota

CITY           SKY/WX    TMP DP  RH WIND       PRES   REMARKS
MONTEVIDEO     SUNNY     52  43  71 N7        30.07R
GRANITE FALLS  SUNNY     49  41  73 NW8       30.08R
CANBY          SUNNY     53  42  65 NW10      30.09R
MARSHALL       SUNNY     54  37  54 NW10      30.07R
REDWOOD FALLS  SUNNY     50  40  68 NW10      30.05R
OLIVIA         SUNNY     50  41  71 NW7       30.04S
PIPESTONE      SUNNY     48  39  71 CALM      30.08R
WINDOM         SUNNY     54  43  66 NW8       30.06R
WORTHINGTON    SUNNY     54  39  58 NW13      30.09R
JACKSON        SUNNY     54  39  58 NW8       30.07R
TRACY          SUNNY     55  40  58 NW9       30.08R
SLAYTON        SUNNY     52  40  63 NW9       30.09S
$$
MNZ065>067-074>077-082>085-091>093-201600-
   South Central Minnesota

CITY           SKY/WX    TMP DP  RH WIND       PRES   REMARKS
MANKATO        SUNNY     50  37  62 NW9       30.03R
NEW ULM        SUNNY     48  43  81 NW8       30.04R
ST JAMES       SUNNY     54  41  62 W12       30.05S
FAIRMONT       SUNNY     54  25  32 NW12      30.04S
GLENCOE        SUNNY     54  45  71 NW7       30.02R
FARIBAULT      SUNNY     54  45  71 NW8       30.01R
OWATONNA       SUNNY     52  43  71 NW7       30.01R
WASECA         SUNNY     50  39  66 NW6       30.04R
ALBERT LEA     SUNNY     54  43  66 NW7       30.01R
$$
MNZ078>079-086>088-094>096-201600-
   Southeast Minnesota

CITY           SKY/WX    TMP DP  RH WIND       PRES   REMARKS
ROCHESTER      SUNNY     52  43  71 NW8       29.99R
RED WING       SUNNY     54  45  71 W7        29.98R
STANTON        SUNNY     54  45  72 NW9       29.99R
DODGE CENTER   SUNNY     52  45  76 NW12      29.99R
WINONA         SUNNY     54  45  71 NW5       29.97R
AUSTIN         SUNNY     52  43  71 NW6       30.00R
PRESTON        SUNNY     51  43  74 NW9       29.99R
$$
ABBREVIATIONS USED IN REMARKS
   TC - TEMPERATURES IN CELSIUS
  WCI - WIND CHILL INDEX
   HX - HEAT INDEX
  VSB - VISIBILITY
$$


USA.gov is the U.S. government's official web portal to all federal, state and local government web resources and services.